Location: Township of Marena
(38.1747°N, 99.6798°W)
Time: 14:44:52
(UTC+00:00)

Cosmos 1992 Rocket - Pass Details

Date: 26 October 2020
Orbit: 759 x 765 km, 74.0° (Epoch: 28 November)

Event Time Altitude Azimuth Distance (km) Brightness Sun altitude
Rises 11:31:17 0° 344° (NNW) 3,227 7.1 -17.8°
Reaches altitude 10° 11:33:41 10° 348° (NNW) 2,298 6.3 -17.4°
Maximum altitude 11:38:52 65° 70° (ENE) 836 4.4 -16.3°
Drops below altitude 10° 11:44:01 10° 152° (SSE) 2,288 6.9 -15.3°
Sets 11:46:24 0° 155° (SSE) 3,210 7.6 -14.9°
